Showing default

COSMOS 1275, 12504

Orbit data source: Space-Track

COSMOS 1275, 12504 is a payload satellite owned by VMF (CIS) in LEO that was launched on Thu, 04 Jun 1981 UTC via a KOSMOS 11K65M launch vehicle from the Plesetsk Missile And Space Complex (PKMTR). Payloads include a variety of satellites, spacecraft, and rockets equipped with specific instruments for various scientific and technological missions. These include communications satellites like Starlink; space stations such as the ISS; scientific satellites like the Hubble; Earth observation satellites from companies like Planet Labs, Umbra, and HawkEye 360; GPS; miniature CubeSats for education and research; and military/defense satellites.

Loading next visibility...
COSMOS 1275 details
Identifier
12504, 1981-053A
Orbit
LEO
Last TLE update7 hours ago
Origin
Flag of CISVMF (CIS)
ManufacturerOmsk Av. Zav.
MissionDefense Navigation
Bus & MotorKAUR-1 11F627, Unknown motor
Mass800 kg wet, 800 kg dry
Launch date (UTC)
1981-06-04 (44 years ago)
Launch vehicle
KOSMOS 11K65M
Launch site
Plesetsk Missile And Space Complex (PKMTR)
Object type
Payload
Rocket body
Debris
Shape & HBRCyl, 5 m
Radar Cross Section9.978 m², Large (>1 m²)

Expand to show TLE details & history

TLE from 7 hours ago
0 COSMOS 1275
1 12504U 81053A   24361.22516366  .00000108  00000-0  97508-4 0  9998
2 12504  82.9608 302.6498 0038451 238.1641 121.5769 13.74475595185370
Epoch: 2024-12-26T05:24Z
Definitive object data (Epoch: 2024-12-26T05:24:14.14Z)
Latitude-0.00006°
Longitude126.38326°
Altitude1,001.35 km
Speed7.344 km/s
True Right ascension20h 10m 35s
True Declination0° 00' 00"
Sunlit
Object was in daylight at TLE epoch
Visualization TLE readout
Latitude-31.37455°
Longitude121.87722°
Altitude995.792 km
Speed7.352 km/s
Apparent Right ascension21h 29m 01s
Apparent Declination-38° 30' 13"
Sunlit
Object is in daylight
Visualization observer readout
Local Sidereal Time11:35:49
Azimuth96.969° ESE
Elevation-65.526°
Doppler factor1
Orbital elements
Apogee altitude1,008.991 km
Perigee altitude952.4 km
Semi-major axis7,358.832 km
Eccentricity0.0038451
Inclination82.9608°
RAAN302.6498°
Arg. of periapsis238.1641°
True anomaly121.95133°
Mean anomaly121.5769°
Eccentric anomaly121.76421°
Mean motion3.43819 °/min
BSTAR0.000097508
Orbital period104.71 mins
Loading maneuver chart data...
Loading historical data...
Loading historical data...
Loading historical data...
Loading historical data...
Loading historical data...
Loading historical data...
Loading historical data...

COSMOS 1275 Visibility forecast

Observer location: undefined°, undefined

Span
Click to sort rows by Start time (UTC) header in descending order
Start Az.
Max El. time (UTC)
Max El. Az.
Max El.
End time (UTC)
End Az.
6 mins2024-12-26 19:31:20.907Z113.728° SE2024-12-26 19:34:20.907Z85.175° E14.911°2024-12-26 19:37:20.907Z54.516° ENE
11 mins2024-12-26 21:14:20.907Z192.978° SSW2024-12-26 21:19:20.907Z261.813° W44.09°2024-12-26 21:25:20.907Z3.334° NNE
11 mins2024-12-27 08:12:20.907Z353.669° N2024-12-27 08:17:20.907Z18.709° NNE44.912°2024-12-27 08:23:20.907Z173.898° S
|